FW7016 Weather Reports


Display with metric or nautical units.
time (UTC)temp
F
wind
direction
speed
MPH
gust
MPH
rain 1hr
in
rain 24hr
in
rain mn
in
humidity
%
barometer
mb
20260506035658 32 85 0.0 2.0 0.00 0.01 0.01 97 1016.9
20260506035155 32 80 2.0 2.0 0.00 0.01 0.01 96 1016.4
20260506034652 32 79 1.0 2.0 0.00 0.01 0.01 97 1016.7
20260506034149 32 71 3.0 3.0 0.00 0.01 0.01 96 1016.6
20260506033647 32 92 2.0 2.0 0.00 0.01 0.01 96 1016.7
20260506033143 32 109 2.0 2.0 0.00 0.01 0.01 96 1016.4
20260506032640 32 102 1.0 2.0 0.00 0.01 0.01 96 1016.7
20260506032137 32 171 0.0 2.0 0.00 0.01 0.01 96 1016.6
20260506031634 32 108 2.0 2.0 0.00 0.01 0.01 96 1016.4
20260506031131 32 91 1.0 2.0 0.00 0.01 0.01 96 1016.4
20260506030630 32 98 1.0 2.0 0.00 0.01 0.01 96 1016.1
20260506030127 32 61 1.0 3.0 0.00 0.01 0.01 96 1016.2
20260506025623 32 65 2.0 3.0 0.00 0.01 0.01 96 1016.2
20260506025119 32 67 2.0 3.0 0.00 0.01 0.01 96 1015.8
20260506024617 32 71 3.0 5.0 0.00 0.01 0.01 96 1015.8
20260506024113 32 48 4.0 5.0 0.00 0.01 0.01 96 1015.8
20260506023609 32 53 3.0 6.0 0.00 0.01 0.01 96 1016.0
20260506023107 32 33 2.0 6.0 0.00 0.01 0.01 96 1015.7
20260506022604 32 49 4.0 6.0 0.00 0.01 0.01 96 1015.7
20260506022102 32 61 3.0 3.0 0.00 0.01 0.01 96 1015.6
20260506021559 32 86 2.0 5.0 0.00 0.01 0.01 96 1015.6
20260506021056 32 61 2.0 6.0 0.00 0.01 0.01 96 1015.6
20260506020553 32 63 3.0 6.0 0.00 0.01 0.01 96 1015.5
20260506020051 32 61 3.0 8.0 0.00 0.01 0.01 96 1015.6
20260506015548 32 56 6.0 8.0 0.00 0.01 0.01 96 1015.3
20260506015045 32 72 5.0 9.0 0.00 0.01 0.01 96 1015.5
20260506014543 32 66 4.0 8.0 0.00 0.01 0.01 96 1015.3
20260506014038 32 66 2.0 6.0 0.00 0.01 0.01 96 1015.0
20260506013536 32 63 6.0 10.0 0.00 0.01 0.01 96 1014.9
20260506013032 32 79 4.0 8.0 0.00 0.01 0.01 96 1015.1
20260506012529 32 74 6.0 9.0 0.00 0.01 0.01 96 1014.8
20260506012026 32 47 5.0 9.0 0.00 0.01 0.01 96 1014.7
20260506011524 32 57 12.0 15.0 0.00 0.01 0.01 96 1014.8
20260506011020 32 32 7.0 9.0 0.00 0.01 0.01 96 1014.5
20260506010519 32 31 11.0 14.0 0.00 0.01 0.01 96 1014.7
20260506010015 32 33 9.0 10.0 0.00 0.01 0.01 96 1014.5
20260506005512 32 29 8.0 13.0 0.00 0.01 0.01 96 1014.8
20260506005008 32 59 6.0 9.0 0.00 0.01 0.01 96 1014.4
20260506004506 32 67 5.0 7.0 0.00 0.01 0.01 96 1014.7
20260506004002 32 348 3.0 6.0 0.00 0.01 0.01 96 1014.3
20260506003458 32 359 4.0 5.0 0.00 0.01 0.01 96 1014.3
20260506002954 32 353 0.0 5.0 0.00 0.01 0.01 96 1014.4
20260506002451 32 324 4.0 5.0 0.00 0.01 0.01 96 1014.4
20260506001946 32 151 2.0 2.0 0.00 0.01 0.01 96 1014.5
20260506001443 32 277 0.0 0.0 0.00 0.01 0.01 96 1014.5
20260506000940 32 252 0.0 0.0 0.00 0.01 0.01 96 1014.5
20260506000438 32 307 3.0 6.0 0.00 0.01 0.01 95 1014.4
20260505235935 32 314 4.0 6.0 0.00 0.01 0.01 95 1014.5
20260505235433 32 178 4.0 5.0 0.00 0.01 0.01 95 1014.8
20260505234929 32 287 5.0 6.0 0.00 0.01 0.01 95 1014.4
20260505234427 32 192 5.0 6.0 0.00 0.01 0.01 95 1014.4
20260505233923 32 297 3.0 5.0 0.00 0.01 0.01 95 1014.7
20260505233421 32 202 3.0 5.0 0.00 0.01 0.01 95 1014.4
20260505232919 32 292 5.0 6.0 0.00 0.01 0.01 95 1014.4
20260505232417 32 291 4.0 5.0 0.00 0.01 0.01 95 1014.3
20260505231913 32 297 5.0 7.0 0.00 0.01 0.01 95 1014.4
20260505231410 32 289 4.0 5.0 0.00 0.01 0.01 95 1014.5
20260505230909 32 300 1.0 3.0 0.00 0.01 0.01 95 1014.4
20260505230406 32 296 4.0 6.0 0.00 0.01 0.01 95 1014.3
20260505225902 32 311 5.0 6.0 0.00 0.01 0.01 95 1014.4
20260505225359 32 240 2.0 3.0 0.00 0.01 0.01 95 1014.3
20260505224854 32 6 3.0 3.0 0.00 0.01 0.01 95 1014.5
20260505224352 32 228 1.0 3.0 0.00 0.01 0.01 95 1014.3
20260505223849 33 177 2.0 3.0 0.00 0.01 0.01 95 1014.2
20260505223346 33 226 2.0 2.0 0.00 0.01 0.01 95 1013.8
20260505222842 32 300 3.0 3.0 0.00 0.01 0.01 95 1014.1
20260505222338 32 123 2.0 3.0 0.00 0.01 0.01 95 1014.2
20260505221835 32 253 2.0 2.0 0.00 0.01 0.01 95 1014.2
20260505221332 33 190 1.0 2.0 0.00 0.01 0.01 95 1014.3
20260505220829 33 162 1.0 2.0 0.00 0.01 0.01 95 1014.1
20260505220326 33 164 1.0 2.0 0.00 0.01 0.01 95 1014.0
20260505215824 33 144 1.0 1.0 0.00 0.01 0.01 95 1014.0
20260505215322 33 117 0.0 2.0 0.00 0.01 0.01 95 1014.2
20260505214820 33 83 2.0 3.0 0.00 0.01 0.01 95 1014.2
20260505214317 33 142 0.0 1.0 0.00 0.01 0.01 95 1014.2
20260505213814 33 106 0.0 3.0 0.00 0.01 0.01 95 1014.2
20260505213312 33 111 1.0 1.0 0.00 0.01 0.01 95 1014.3
20260505212807 33 145 2.0 2.0 0.00 0.01 0.01 95 1014.5
20260505212306 33 148 0.0 2.0 0.00 0.01 0.01 95 1014.3
20260505211801 33 106 1.0 2.0 0.00 0.01 0.01 95 1014.8
20260505211259 33 107 2.0 2.0 0.00 0.01 0.01 95 1014.5
20260505210754 33 166 0.0 1.0 0.00 0.01 0.01 95 1014.8
20260505210252 33 193 1.0 2.0 0.00 0.01 0.01 95 1014.5
20260505205749 33 173 0.0 0.0 0.00 0.01 0.01 95 1014.5
20260505205247 33 175 0.0 0.0 0.00 0.01 0.01 95 1014.7
20260505204743 33 156 0.0 2.0 0.00 0.01 0.01 95 1015.0
20260505204241 33 151 0.0 2.0 0.00 0.01 0.01 95 1014.9
20260505203738 32 85 3.0 3.0 0.00 0.01 0.01 95 1014.9
20260505203235 32 100 2.0 3.0 0.00 0.01 0.01 95 1014.8
20260505202731 32 125 2.0 2.0 0.00 0.01 0.01 95 1015.1
20260505202227 32 111 1.0 2.0 0.00 0.01 0.01 95 1014.9
20260505201724 32 61 4.0 5.0 0.00 0.01 0.01 95 1015.1
20260505201222 32 97 2.0 5.0 0.00 0.01 0.01 95 1015.0
20260505200720 32 53 3.0 6.0 0.00 0.01 0.01 95 1014.9
20260505200216 32 75 4.0 5.0 0.00 0.01 0.01 95 1015.0
20260505195712 32 115 0.0 1.0 0.00 0.01 0.01 95 1014.9
20260505195210 32 93 1.0 2.0 0.00 0.01 0.01 95 1015.1
20260505194707 32 64 1.0 3.0 0.00 0.01 0.01 95 1014.9
20260505194203 32 64 1.0 3.0 0.00 0.01 0.01 95 1015.0
20260505193659 32 86 2.0 5.0 0.00 0.01 0.01 95 1015.0
20260505193156 32 62 4.0 5.0 0.00 0.01 0.01 95 1015.0
20260505192655 32 51 3.0 5.0 0.00 0.01 0.01 95 1015.0
20260505192152 32 62 3.0 5.0 0.00 0.01 0.01 95 1015.1
20260505191650 32 62 2.0 5.0 0.00 0.01 0.01 95 1015.3
20260505191148 32 54 5.0 7.0 0.00 0.01 0.01 95 1015.1
20260505190644 32 58 2.0 7.0 0.00 0.01 0.01 95 1015.5
20260505190144 32 43 8.0 9.0 0.00 0.01 0.01 95 1015.4
20260505185641 32 31 4.0 6.0 0.00 0.01 0.01 95 1015.6
20260505185137 33 38 6.0 7.0 0.00 0.01 0.01 94 1015.4
20260505184634 33 32 7.0 9.0 0.00 0.01 0.01 95 1015.5
20260505184131 34 22 7.0 8.0 0.00 0.01 0.01 95 1015.6
20260505183627 33 43 5.0 6.0 0.00 0.01 0.01 95 1015.6
20260505183125 33 40 4.0 6.0 0.00 0.01 0.01 94 1015.7
20260505182621 33 51 5.0 7.0 0.00 0.01 0.01 95 1015.6
20260505182118 33 31 8.0 9.0 0.00 0.01 0.01 94 1015.5
20260505181615 33 6 7.0 9.0 0.00 0.01 0.01 95 1015.6
20260505181112 33 37 7.0 9.0 0.00 0.01 0.01 95 1015.8
20260505180608 33 21 8.0 10.0 0.00 0.01 0.01 95 1015.8
20260505180106 33 17 6.0 9.0 0.00 0.01 0.01 95 1015.7
20260505175601 33 15 7.0 9.0 0.00 0.01 0.01 95 1015.6
20260505175058 33 36 5.0 10.0 0.00 0.01 0.01 95 1015.6
20260505174555 33 19 9.0 10.0 0.00 0.01 0.01 95 1015.7
20260505174050 32 49 7.0 9.0 0.00 0.01 0.01 95 1016.0
20260505173548 32 35 9.0 13.0 0.00 0.01 0.01 94 1016.1
20260505173044 32 45 7.0 10.0 0.00 0.01 0.01 95 1015.8
20260505172542 32 12 9.0 11.0 0.00 0.01 0.01 95 1016.0
20260505172039 32 34 8.0 10.0 0.00 0.01 0.01 95 1015.8
20260505171533 32 48 8.0 10.0 0.00 0.01 0.01 95 1015.8
20260505171030 32 43 6.0 7.0 0.00 0.01 0.01 95 1015.8
20260505170527 32 35 8.0 10.0 0.00 0.01 0.01 95 1016.0
20260505170024 32 39 5.0 9.0 0.00 0.01 0.01 95 1016.0
20260505165519 32 45 6.0 10.0 0.00 0.01 0.01 95 1015.8
20260505165015 32 49 7.0 11.0 0.00 0.01 0.01 95 1016.2
20260505164511 32 31 9.0 13.0 0.00 0.01 0.01 95 1015.8
20260505164009 32 37 11.0 14.0 0.00 0.01 0.01 95 1016.2
20260505163507 32 43 6.0 14.0 0.00 0.01 0.01 95 1015.7
20260505163003 32 41 4.0 6.0 0.00 0.01 0.01 95 1016.0
20260505162457 32 41 4.0 6.0 0.00 0.01 0.01 95 1016.1
20260505161954 32 41 4.0 6.0 0.00 0.01 0.01 95 1015.8
20260505161450 32 53 12.0 16.0 0.00 0.01 0.01 95 1016.0
20260505160948 32 10 11.0 13.0 0.00 0.01 0.01 95 1016.0
20260505160446 32 14 12.0 14.0 0.00 0.01 0.01 95 1016.0
20260505152922 33 212 3.0 3.0 0.00 0.01 0.01 95 1015.6
20260505152419 33 212 3.0 3.0 0.00 0.01 0.01 95 1015.4
20260505151913 33 212 3.0 3.0 0.00 0.01 0.01 95 1015.3
20260505151404 33 212 3.0 3.0 0.00 0.01 0.01 95 1015.3
20260505150901 33 212 3.0 3.0 0.00 0.01 0.01 95 1015.3
20260505150358 33 212 3.0 3.0 0.00 0.01 0.01 95 1015.4
20260505140317 32 244 3.0 5.0 0.00 0.01 0.01 96 1015.4
20260505130228 32 80 0.0 0.0 0.00 0.00 0.00 96 1014.8
20260505124719 32 81 0.0 0.0 0.00 0.00 0.00 96 1014.5
20260505124216 32 80 0.0 0.0 0.00 0.00 0.00 96 1014.7
20260505123711 32 79 0.0 0.0 0.00 0.00 0.00 96 1014.5
20260505123208 32 79 0.0 0.0 0.00 0.00 0.00 96 1014.7
20260505122705 32 78 0.0 0.0 0.00 0.00 0.00 95 1014.7
20260505122202 32 78 0.0 0.0 0.00 0.00 0.00 95 1014.4
20260505121658 32 78 0.0 0.0 0.00 0.00 0.00 96 1014.5
20260505121154 32 77 0.0 0.0 0.00 0.00 0.00 95 1014.4
20260505120651 32 77 0.0 0.0 0.00 0.00 0.00 96 1014.5
20260505120147 32 77 0.0 0.0 0.00 0.00 0.00 96 1014.3
20260505115641 32 77 0.0 0.0 0.00 0.00 0.00 95 1014.3
20260505115139 32 76 0.0 0.0 0.00 0.00 0.00 95 1014.2
20260505114630 32 76 0.0 0.0 0.00 0.00 0.00 95 1014.4
20260505114126 32 76 0.0 0.0 0.00 0.00 0.00 95 1014.2
20260505113622 32 75 0.0 0.0 0.00 0.00 0.00 95 1014.2
20260505113119 32 75 0.0 0.0 0.00 0.00 0.00 95 1014.5
20260505112615 32 75 0.0 0.0 0.00 0.00 0.00 95 1014.2
20260505112114 32 75 0.0 0.0 0.00 0.00 0.00 95 1014.2
20260505111608 32 74 0.0 0.0 0.00 0.00 0.00 95 1014.2
20260505111104 32 74 0.0 0.0 0.00 0.00 0.00 95 1014.4
20260505110601 32 74 0.0 0.0 0.00 0.00 0.00 95 1014.2
20260505102033 32 70 0.0 0.0 0.00 0.00 0.00 95 1014.2
20260505101532 32 70 0.0 0.0 0.00 0.00 0.00 95 1014.2
20260505101027 32 69 0.0 0.0 0.00 0.00 0.00 95 1014.3
20260505100525 32 68 0.0 0.0 0.00 0.00 0.00 95 1014.3
20260505100022 32 66 0.0 0.0 0.00 0.00 0.00 95 1014.3
20260505095518 32 65 0.0 0.0 0.00 0.00 0.00 95 1014.5
20260505095014 32 64 0.0 0.0 0.00 0.00 0.00 95 1014.4
20260505094511 32 62 0.0 0.0 0.00 0.00 0.00 95 1014.4
20260505094007 32 60 0.0 0.0 0.00 0.00 0.00 95 1014.8
20260505093503 32 58 0.0 0.0 0.00 0.00 0.00 95 1014.7
20260505093001 32 55 0.0 0.0 0.00 0.00 0.00 94 1014.8
20260505092458 32 53 2.0 3.0 0.00 0.00 0.00 95 1014.7
20260505091955 32 51 3.0 5.0 0.00 0.00 0.00 95 1014.8
20260505091453 32 49 4.0 6.0 0.00 0.00 0.00 94 1014.9
20260505090951 32 47 3.0 8.0 0.00 0.00 0.00 94 1014.7
20260505090449 32 49 7.0 7.0 0.00 0.00 0.00 94 1014.5
20260505085946 32 47 7.0 8.0 0.00 0.00 0.00 94 1014.5
20260505085443 32 38 6.0 7.0 0.00 0.00 0.00 94 1015.0
20260505084942 32 20 7.0 9.0 0.00 0.00 0.00 94 1014.7
20260505084440 33 38 6.0 8.0 0.00 0.00 0.00 94 1015.0
20260505083937 33 37 5.0 7.0 0.00 0.00 0.00 94 1014.8
20260505083434 33 29 5.0 7.0 0.00 0.00 0.00 94 1014.9
20260505082931 33 39 4.0 8.0 0.00 0.00 0.00 94 1014.4
20260505082426 33 58 4.0 7.0 0.00 0.00 0.00 94 1014.4
20260505081924 34 39 2.0 6.0 0.00 0.00 0.00 94 1014.5
20260505081421 34 43 6.0 10.0 0.00 0.00 0.00 93 1014.5
20260505080917 34 50 5.0 9.0 0.00 0.00 0.00 93 1014.3
20260505080413 34 24 11.0 14.0 0.00 0.00 0.00 93 1014.4
20260505075908 34 357 10.0 15.0 0.00 0.00 0.00 93 1014.5
20260505075406 34 356 9.0 11.0 0.00 0.00 0.00 93 1014.4
20260505074903 34 40 9.0 13.0 0.00 0.00 0.00 93 1014.3
20260505074400 34 38 7.0 11.0 0.00 0.00 0.00 93 1014.4
20260505073857 34 37 6.0 11.0 0.00 0.00 0.00 92 1014.3
20260505073349 34 26 7.0 11.0 0.00 0.00 0.00 92 1014.4
20260505072846 35 39 7.0 11.0 0.00 0.00 0.00 92 1014.3
20260505072342 35 0 10.0 14.0 0.00 0.00 0.00 92 1014.5
20260505071838 35 23 12.0 17.0 0.00 0.00 0.00 92 1014.5
20260505071335 35 30 8.0 14.0 0.00 0.00 0.00 91 1014.7
20260505070833 36 47 12.0 18.0 0.00 0.00 0.00 91 1014.4
20260505070329 36 1 11.0 15.0 0.00 0.00 0.00 91 1014.4
20260505065825 36 60 8.0 11.0 0.00 0.00 0.00 90 1014.2
20260505065321 36 32 12.0 15.0 0.00 0.00 0.00 90 1014.4
20260505064819 36 21 13.0 18.0 0.00 0.00 0.00 90 1014.2
20260505064316 37 26 6.0 17.0 0.00 0.00 0.00 90 1014.2
20260505063814 37 359 14.0 16.0 0.00 0.00 0.00 89 1014.2
20260505063310 37 353 12.0 16.0 0.00 0.00 0.00 89 1014.4
20260505062806 37 7 17.0 23.0 0.00 0.00 0.00 88 1014.5
20260505062304 37 350 13.0 22.0 0.00 0.00 0.00 87 1014.2
20260505061800 38 347 17.0 23.0 0.00 0.00 0.00 87 1014.2
20260505061259 38 35 14.0 21.0 0.00 0.00 0.00 87 1014.3
20260505060756 38 38 10.0 18.0 0.00 0.00 0.00 86 1014.3
20260505060253 39 358 16.0 21.0 0.00 0.00 0.00 84 1014.1
20260505055748 39 31 11.0 16.0 0.00 0.00 0.00 83 1013.8
20260505055244 40 22 14.0 25.0 0.00 0.00 0.00 80 1014.1
20260505054742 42 38 12.0 20.0 0.00 0.00 0.00 77 1013.8
20260505054239 43 68 6.0 8.0 0.00 0.00 0.00 72 1013.2
20260505053738 43 62 7.0 11.0 0.00 0.00 0.00 71 1013.6
20260505053234 44 75 3.0 11.0 0.00 0.00 0.00 68 1013.5
20260505052731 44 77 4.0 9.0 0.00 0.00 0.00 67 1013.5
20260505052228 45 63 4.0 9.0 0.00 0.00 0.00 65 1013.4
20260505051725 45 74 7.0 10.0 0.00 0.00 0.00 64 1013.2
20260505051223 45 64 6.0 9.0 0.00 0.00 0.00 65 1013.4
20260505050721 45 71 4.0 10.0 0.00 0.00 0.00 64 1013.0
20260505050219 45 59 5.0 11.0 0.00 0.00 0.00 64 1013.1
20260505041648 46 70 11.0 17.0 0.00 0.00 0.00 63 1013.1
20260505041146 47 68 8.0 15.0 0.00 0.00 0.00 63 1013.2
20260505040643 47 60 11.0 16.0 0.00 0.00 0.00 62 1013.4
20260505040140 47 58 7.0 13.0 0.00 0.00 0.00 62 1013.0